Regional Weather Roundup
Issued by NWS

Home | Current Version | Previous Version | Graphics & Text | Print | Product List | Glossary On
Versions: 1 2 3 4 5 6 7 8 9 10 11 12 13 14 15 16 17 18 19 20 21 22 23 24 25 26 27 28 29 30 31 32 33 34 35 36 37 38 39 40 41 42 43 44 45 46 47 48 49 50
000
ASUS43 KDTX 010210
RWRMI
MICHIGAN HOURLY REGIONAL WEATHER ROUNDUP
NATIONAL WEATHER SERVICE DETROIT/PONTIAC MI
1000 PM EDT TUE SEP 30 2014

NOTE: "FAIR" INDICATES FEW OR NO CLOUDS BELOW 12,000 FEET WITH NO
SIGNIFICANT WEATHER AND/OR OBSTRUCTION TO VISIBILITY.

MIZ047>049-052>055-059>063-066>070-074>076-081>083-010300-
SOUTHEAST LOWER MICHIGAN

CITY           SKY/WX    TMP DP  RH WIND       PRES   REMARKS
ADRIAN         CLOUDY    53  47  79 NE8       30.03R
ALMA           CLOUDY    52  48  87 E6        30.06R
ANN ARBOR      CLOUDY    53  46  77 NE8       30.02R
BAD AXE        DRIZZLE   54  54 100 N8        30.03S
DETROIT CITY   CLOUDY    54  48  80 N6        30.03R
DETROIT        CLOUDY    54  48  82 N7        30.02R
FLINT          CLOUDY    54  49  83 NE8       30.04S
GROSSE ILE     CLOUDY    55  50  82 N6        30.00R
HILLSDALE      CLOUDY    54  51  91 CALM      30.02S
HOWELL         CLOUDY    50  48  94 N5        30.03R FOG

CITY           SKY/WX    TMP DP  RH WIND       PRES   REMARKS
JACKSON        CLOUDY    51  48  89 CALM      30.03R
LAMBERTVILLE   CLOUDY    54  50  87 CALM      30.02S
LANSING        CLOUDY    52  47  83 NE5       30.05R
LAPEER         NOT AVBL
MASON          CLOUDY    50  48  92 CALM      30.04R
MONROE         CLOUDY    54  50  87 N3        30.01R
MT. CLEMENS    CLOUDY    52  52  99 N12       30.00R
PONTIAC        CLOUDY    51  47  86 N8        30.01R
PORT HOPE        N/A     57  55  93 NE15      30.02R
PORT HURON     CLOUDY    52  52 100 NW6       30.01S FOG
TRI CITIES     CLOUDY    52  48  86 N8        30.05R
YPSILANTI      CLOUDY    55  48  77 N6        30.02S
$$
MIZ043>046-050>051-056>058-064>065-071>073-077>080-010300-
SOUTHWEST LOWER MICHIGAN

CITY           SKY/WX    TMP DP  RH WIND       PRES   REMARKS
BATTLE CREEK   CLOUDY    55  47  74 NE5       30.03S
BIG RAPIDS     CLOUDY    52  52  99 NE5       30.04R
COLDWATER      CLOUDY    56  50  79 E8        30.02S
GRAND RAPIDS   CLOUDY    54  50  86 N5        30.03S
KALAMAZOO      CLOUDY    54  48  80 N3        30.03S
MARSHALL       CLOUDY    53  47  82 CALM      30.02S
MUSKEGON       CLOUDY    54  47  77 NE6       30.04S
$$
MIZ016>042-010300-
NORTHERN LOWER MICHIGAN

CITY           SKY/WX    TMP DP  RH WIND       PRES   REMARKS
ALPENA         CLOUDY    51  50  96 N5        30.07S
BEAVER ISLAND  CLOUDY    54  49  85 E6        30.06F
BELLAIRE       CLOUDY    50  47  89 CALM      30.06F
CADILLAC       CLOUDY    49  48  97 NE7       30.04S
CHARLEVOIX     CLOUDY    52  49  89 E5        30.09F
FRANKFORT      CLOUDY    52  47  83 CALM      30.05S
GAYLORD        CLOUDY    47  46  97 E7        30.06S
GRAYLING       CLOUDY    49  48  95 E7        30.07S
HARBOR SPRINGS CLOUDY    52  47  85 NE6       30.07S
HOUGHTON LAKE  CLOUDY    49  46  90 NE9       30.06S
OSCODA         CLOUDY    50  50 100 N8        30.04F FOG
PELLSTON       CLOUDY    51  48  89 SE3       30.08R
TRAVERSE CITY  CLOUDY    52  47  83 E6        30.04F
$$
MIZ007>008-015-010300-
EASTERN UPPER MICHIGAN

CITY           SKY/WX    TMP DP  RH WIND       PRES   REMARKS
MACKINAC ISLAN CLOUDY    54  50  88 NE7       30.07R
NEWBERRY       CLOUDY    49  46  90 NW5       30.08S
S. S. MARIE    CLOUDY    54  47  77 CALM      30.08R
$$
MIZ004>006-011>014-085-010300-
CENTRAL UPPER MICHIGAN

CITY           SKY/WX    TMP DP  RH WIND       PRES   REMARKS
MANISTIQUE     CLOUDY    52  50  92 CALM      30.06S
SAWYER-GWINN   CLOUDY    43  41  93 CALM      30.06S
$$
MIZ001>003-009>011-084-010300-
WESTERN UPPER MICHIGAN

CITY           SKY/WX    TMP DP  RH WIND       PRES   REMARKS
IRON MOUNTAIN  CLEAR     45  42  89 S3        30.04S
HOUGHTON       CLEAR     43  40  89 E10       30.03F
COPPER HARBOR    N/A     44  35  70 CALM      30.05F
$$

ABBREVIATIONS USED IN REMARKS
   TC - TEMPERATURE IN CELSIUS
  WCI - WIND CHILL INDEX
   HX - HEAT INDEX
  VSB - VISIBILITY




USA.gov is the U.S. government's official web portal to all federal, state and local government web resources and services.